This is the latest recevied weather packets stored in our database for station/object E20EHQ-13. If no packets are shown the sender has not sent any weather packets the latest 10 day(s).
| Time | Temp. | Humidity | Pressure | Rain* | Wind** | Luminosity | Snow |
|---|---|---|---|---|---|---|---|
| 1778151263 | 31.11° C | 79% | 1005.6 hPa | 0 mm | - | 85 W/m² | - |
| 1778150963 | 31.11° C | 79% | 1005.4 hPa | 0 mm | - | 95 W/m² | - |
| 1778150663 | 31.67° C | 78% | 1005.3 hPa | 0 mm | - | 133 W/m² | - |
| 1778150383 | 31.67° C | 78% | 1005.3 hPa | 0 mm | - | 135 W/m² | - |
| 1778150063 | 31.67° C | 78% | 1005.2 hPa | 0 mm | - | 139 W/m² | - |
| 1778149463 | 31.67° C | 77% | 1005 hPa | 0 mm | - | 172 W/m² | - |
| 1778148863 | 32.22° C | 75% | 1005.2 hPa | 0 mm | - | 186 W/m² | - |
| 1778147663 | 32.78° C | 73% | 1004.9 hPa | 0 mm | - | 259 W/m² | - |
| 1778147363 | 33.33° C | 70% | 1004.9 hPa | 0 mm | - | 216 W/m² | - |
| 1778147063 | 33.33° C | 69% | 1004.8 hPa | 0 mm | - | 252 W/m² | - |
| 1778146463 | 33.33° C | 67% | 1004.7 hPa | 0 mm | - | 331 W/m² | - |
| 1778146163 | 33.33° C | 68% | 1004.7 hPa | 0 mm | - | 402 W/m² | - |
| 1778145863 | 33.33° C | 68% | 1004.7 hPa | 0 mm | - | 441 W/m² | - |
| 1778145263 | 33.33° C | 66% | 1004.8 hPa | 0 mm | - | 509 W/m² | - |
| 1778144963 | 33.33° C | 67% | 1004.7 hPa | 0 mm | - | 516 W/m² | - |
| 1778144664 | 33.33° C | 67% | 1004.6 hPa | 0 mm | - | 534 W/m² | - |
| 1778144363 | 33.33° C | 68% | 1004.5 hPa | 0 mm | - | 543 W/m² | - |
| 1778143463 | 33.33° C | 68% | 1004.2 hPa | 0 mm | - | 552 W/m² | - |
| 1778142863 | 33.33° C | 69% | 1004.2 hPa | 0 mm | - | 603 W/m² | - |
| 1778142263 | 33.89° C | 67% | 1004.3 hPa | 0 mm | - | 419 W/m² | - |
| 1778141663 | 34.44° C | 66% | 1004.5 hPa | 0 mm | - | 679 W/m² | - |
| 1778141063 | 33.89° C | 64% | 1004.6 hPa | 0 mm | - | 409 W/m² | - |
| 1778140463 | 33.89° C | 63% | 1004.1 hPa | 0 mm | - | 705 W/m² | - |
| 1778139863 | 33.89° C | 64% | 1004.2 hPa | 0 mm | - | 729 W/m² | - |
| 1778139563 | 33.89° C | 65% | 1004.3 hPa | 0 mm | - | 682 W/m² | - |
* Rain latest hour (hover to see other rain measurements)
** Current wind speed in m/s (hover to see current wind gust speed)